"Pseudo-MPEC" for P10LizC

Created 2019 Jan 12 21:18:35 UT using Find_Orb

Click here for an explanation of pseudo-MPECs

 
 Astrometry: 
     P10LizC  C2019 01 09I=HO41u*`W]hi*GCSjC^5xAO5nW4AstrometrykY8b'gQmb[SsvuF51
     P10LizC  C2019 01 09NqLl,;;=redacted;*,QBI2c%%[3xT/s;ioF6NM9T@yo[SAmuj^DF51
     P10LizC  C2019 01 09'hOp8OLN#A1t@[U74P^dud?$@yv[gXJ=(FUj$/25),p8C+h\IcK]F51
     P10LizC KC2019 01 103QuomAJ7E3#[0+T-jwi9:jclickeQnVhI]l6hg,5.0MTxPi::tIHH21
     P10LizC KC2019 01 10Cl*T4-kxZG^IUhereHvcF',au[dwFdiXX$$b08J!rH[?,+OT[l!yH21
     P10LizC KC2019 01 10D28V7n[S$M#FKa?WFnf\aAR:7Dtq4.oFFK7;`k?hnEh@aaQaVqwqH21
     P10LizC ^C2019 01 10.39798708 47 21.188+21 01 30.33   ~1AKI 21.49GVNEOCP568
     P10LizC ^C2019 01 10.39893408 47 21.120+21 01 31.05   ~1AKI 21.54GVNEOCP568
     P10LizC ^C2019 01 10.39988208 47 21.054+21 01 31.79   ~1AKI 21.46GVNEOCP568
     P10LizC KC2019 01 12bGI/GObik\W`[yZvae8q]5BOe-Y:FYm)enXfWG1mYK(Xfor+%sq=291
     P10LizC KC2019 01 12?f?vBfY.[kNll9_%eg^JF1AcOph3hbO.'%Pn88))fuPZ4UE!mo%k291
     P10LizC KC2019 01 12W17emexplanation;/TD8u?BUSxT.k#0JnP+ieUvC@3b3*$N93r+291

Station data:
(291) LPL/Spacewatch II  (N31.961669 W111.599905)  US/Arizona.  Observers J.
   V. Scotti, R. S. McMillan. 1.8-m f/2.7 reflector + CCD.
(568) Mauna Kea  (N19.826116 W155.472200)  US/Hawaii.
(F51) Pan-STARRS 1, Haleakala  (N20.707235 W156.255910)  US/Hawaii.
   Observers N. Primak, A. Schultz, S. Watters, J. Thiel, T. Goggia. Measurer
   PS1 Science Consortium. 1.8-m Ritchey-Chrétien + CCD.
(H21) Astronomical Research Observatory, Westfield  (N39.483057 W87.968270)
   US/Illinois. 0.76-m f/3.0 astrograph + CCD.

Orbital elements:  P10LizC
   Perihelion 2018 Sep 5.403680 +/- 4.54 TT =  9:41:17 (JD 2458366.903680)
Epoch 2019 Jan 12.0 TT = JDT 2458495.5   Earth MOID: 0.4043   Ma: 0.0591
M  37.38902261 +/- 1.4              (J2000 ecliptic)          AutoNEOCP
n   0.29074721 +/- 0.00466          Peri.  292.89721 +/- 1.4
a   2.25662295 +/- 0.0241           Node   108.10981 +/- 0.38
e   0.3934360 +/- 0.00952           Incl.    7.84696 +/- 0.31
P   3.39                   H 20.6   G  0.15   U  9.2  
q 1.36878606 +/- 0.0131    Q 3.14445985 +/- 0.0519
From 12 observations 2019 Jan. 9-12; mean residual 0".18
Residuals in arcseconds: 
190109 F51  .16+  .08+    190110 H21  .02+  .51-    190110 568  .05-  .23+    
190109 F51  .05+  .14+    190110 H21  .21-  .33-    190112 291  .04-  .17+    
190109 F51  .01-  .10+    190110 568  .02-  .22+    190112 291  .02+  .00     
190110 H21  .03+  .24-    190110 568  .05-  .21+    190112 291  .11+  .07-    

Ephemerides (geocentric):
Date (UTC) HH   RA              Dec         delta   r     elong  mag " sig PA
---- -- -- --  -------------   -----------  ------ ------ -----  --- ---- ---
2019 01 12 21  08 44 33.480   +21 32 30.54  .79937 1.7656 164.0 22.0 .191  27
2019 01 12 22  08 44 30.601   +21 33 01.64  .79945 1.7658 164.0 22.0 .209  26
2019 01 12 23  08 44 27.721   +21 33 32.72  .79954 1.7660 164.1 22.0 .228  25
2019 01 13 00  08 44 24.839   +21 34 03.80  .79963 1.7662 164.1 22.0 .247  24
2019 01 13 01  08 44 21.955   +21 34 34.87  .79971 1.7664 164.2 22.0 .267  23
2019 01 13 02  08 44 19.069   +21 35 05.93  .79980 1.7666 164.2 22.0 .287  22
2019 01 13 03  08 44 16.181   +21 35 36.98  .79989 1.7668 164.3 22.0 .308  21
2019 01 13 04  08 44 13.292   +21 36 08.03  .79997 1.7670 164.3 22.0 .330  20
2019 01 13 05  08 44 10.400   +21 36 39.07  .80006 1.7672 164.4 22.0 .351  20
2019 01 13 06  08 44 07.507   +21 37 10.09  .80015 1.7674 164.4 22.0 .373  19
2019 01 13 07  08 44 04.612   +21 37 41.11  .80024 1.7676 164.5 22.0 .396  19
2019 01 13 08  08 44 01.715   +21 38 12.12  .80033 1.7678 164.5 22.0 .419  18
2019 01 13 09  08 43 58.816   +21 38 43.12  .80042 1.7680 164.6 22.0 .443  18
2019 01 13 10  08 43 55.915   +21 39 14.12  .80051 1.7682 164.6 22.0 .467  17
2019 01 13 11  08 43 53.013   +21 39 45.10  .80060 1.7684 164.7 22.0 .492  17
2019 01 13 12  08 43 50.108   +21 40 16.08  .80069 1.7686 164.8 22.0 .517  17
2019 01 13 13  08 43 47.202   +21 40 47.04  .80078 1.7688 164.8 22.0 .542  16
2019 01 13 14  08 43 44.295   +21 41 18.00  .80087 1.7690 164.9 22.0 .568  16
2019 01 13 15  08 43 41.385   +21 41 48.95  .80097 1.7692 164.9 22.0 .594  16
2019 01 13 16  08 43 38.474   +21 42 19.88  .80106 1.7694 165.0 22.0 .621  15
2019 01 13 17  08 43 35.561   +21 42 50.81  .80115 1.7696 165.0 22.0 .649  15
2019 01 13 18  08 43 32.646   +21 43 21.73  .80124 1.7698 165.1 22.0 .676  15
2019 01 13 19  08 43 29.730   +21 43 52.64  .80134 1.7700 165.1 22.0 .705  15
2019 01 13 20  08 43 26.811   +21 44 23.54  .80143 1.7702 165.2 22.0 .733  14
2019 01 13 21  08 43 23.891   +21 44 54.43  .80153 1.7704 165.2 22.0 .763  14
2019 01 13 22  08 43 20.970   +21 45 25.31  .80162 1.7706 165.3 22.0 .792  14
2019 01 13 23  08 43 18.047   +21 45 56.19  .80172 1.7708 165.3 22.0 .823  14
2019 01 14 00  08 43 15.122   +21 46 27.05  .80181 1.7710 165.4 22.0 .853  13
2019 01 14 01  08 43 12.195   +21 46 57.90  .80191 1.7712 165.4 22.0 .884  13
2019 01 14 02  08 43 09.267   +21 47 28.74  .80200 1.7714 165.5 22.0 .916  13
2019 01 14 03  08 43 06.337   +21 47 59.57  .80210 1.7716 165.5 22.0 .948  13
2019 01 14 04  08 43 03.406   +21 48 30.39  .80220 1.7718 165.6 22.0 .980  12
2019 01 14 05  08 43 00.473   +21 49 01.20  .80230 1.7720 165.7 22.0 1.01  12
2019 01 14 06  08 42 57.538   +21 49 32.01  .80239 1.7722 165.7 22.0 1.05  12
2019 01 14 07  08 42 54.602   +21 50 02.80  .80249 1.7724 165.8 22.0 1.08  12
2019 01 14 08  08 42 51.664   +21 50 33.58  .80259 1.7726 165.8 22.0 1.12  12
2019 01 14 09  08 42 48.725   +21 51 04.35  .80269 1.7728 165.9 22.0 1.15  11
2019 01 14 10  08 42 45.784   +21 51 35.10  .80279 1.7730 165.9 22.0 1.19  11
2019 01 14 11  08 42 42.841   +21 52 05.85  .80289 1.7732 166.0 22.0 1.22  11
2019 01 14 12  08 42 39.897   +21 52 36.59  .80299 1.7734 166.0 22.0 1.26  11
2019 01 14 13  08 42 36.952   +21 53 07.32  .80309 1.7736 166.1 22.0 1.29  11
2019 01 14 14  08 42 34.005   +21 53 38.03  .80319 1.7738 166.1 22.0 1.33  11
2019 01 14 15  08 42 31.056   +21 54 08.74  .80330 1.7740 166.2 22.0 1.37  10
2019 01 14 16  08 42 28.106   +21 54 39.43  .80340 1.7742 166.2 21.9 1.41  10
2019 01 14 17  08 42 25.155   +21 55 10.11  .80350 1.7744 166.3 21.9 1.45  10
2019 01 14 18  08 42 22.202   +21 55 40.79  .80360 1.7746 166.3 21.9 1.49  10
2019 01 14 19  08 42 19.247   +21 56 11.45  .80371 1.7748 166.4 21.9 1.52  10
2019 01 14 20  08 42 16.291   +21 56 42.09  .80381 1.7750 166.4 21.9 1.56   9